Weather History for Skagway, AK

Change the Weather History Date:

Tuesday, November 18, 2014

  Actual Average Record
Temperature  
Mean Temperature 39 °F -  
Max Temperature 43 °F 36 °F 48 °F (2005)
Min Temperature 35 °F 29 °F 6 °F (1969)
Degree Days  
Heating Degree Days 26    
Moisture  
Dew Point 29 °F    
Average Humidity 66    
Maximum Humidity 96    
Minimum Humidity 51    
Precipitation  
Precipitation 0.13 in - - ()
Sea Level Pressure  
Sea Level Pressure 29.99 in    
Wind  
Wind Speed 16 mph (NE)    
Max Wind Speed 25 mph    
Max Gust Speed 40 mph    
Visibility 9 miles    
Events Rain    
Averages and records for this station are not official NWS values.
T = Trace of Precipitation, MM = Missing Value Source: NWS Daily Summary

Daily Weather History Graph

Daily Weather History Graph

Search for Another Location

Airport:

Trip Planner

Search our weather history database for the weather conditions in past years. The results will help you decide how hot, cold, wet, or windy it might be!

Date:

Astronomy

Nov. 18, 2014 Rise Set
Actual Time 8:03 AM AKST 3:28 PM AKST
Civil Twilight 7:14 AM AKST 4:17 PM AKST
Nautical Twilight 6:23 AM AKST 5:08 PM AKST
Astronomical Twilight 5:34 AM AKST 5:57 PM AKST
Moon 3:10 AM AKST (11/18) 2:20 PM AKST (11/18)
Length of Visible Light 9h 02m
Length of Day
7h 24m
Waning Crescent, 14% of the Moon is Illuminated
Nov 18
Waning Crescent
Nov 22
New
Nov 29
First Quarter
Dec 6
Full
Dec 14
Last Quarter

Hourly Weather History & Observations

Time (AKST) Temp. Windchill Dew Point Humidity Pressure Visibility Wind Dir Wind Speed Gust Speed Precip Events Conditions
12:53 AM 42.1 °F 34.5 °F 27.0 °F 55% 30.11 in 10.0 mi NE 15.0 mph 34.5 mph N/A   Clear
1:53 AM 42.1 °F 33.1 °F 27.0 °F 55% 30.11 in 10.0 mi NE 20.7 mph 33.4 mph N/A   Clear
2:53 AM 41.0 °F 31.4 °F 27.0 °F 57% 30.10 in 10.0 mi NE 21.9 mph 35.7 mph N/A   Clear
3:53 AM 41.0 °F 32.2 °F 27.0 °F 57% 30.10 in 10.0 mi NE 18.4 mph 40.3 mph N/A   Clear
4:53 AM 41.0 °F 31.9 °F 26.1 °F 55% 30.07 in 10.0 mi NE 19.6 mph 33.4 mph N/A   Clear
5:53 AM 41.0 °F 31.1 °F 26.1 °F 55% 30.06 in 10.0 mi NE 23.0 mph 40.3 mph N/A   Clear
6:53 AM 41.0 °F 31.6 °F 26.1 °F 55% 30.05 in 10.0 mi NE 20.7 mph 38.0 mph N/A   Clear
7:53 AM 41.0 °F 32.5 °F 26.1 °F 55% 30.05 in 10.0 mi NNE 17.3 mph 34.5 mph N/A   Clear
8:53 AM 42.1 °F 33.1 °F 26.1 °F 53% 30.03 in 10.0 mi NE 20.7 mph 32.2 mph N/A   Clear
9:53 AM 42.1 °F 32.1 °F 26.1 °F 53% 30.03 in 10.0 mi NE 25.3 mph 35.7 mph N/A   Clear
10:53 AM 42.1 °F 33.1 °F 26.1 °F 53% 30.02 in 10.0 mi NNE 20.7 mph 34.5 mph N/A   Clear
11:53 AM 42.1 °F 32.8 °F 26.1 °F 53% 30.00 in 10.0 mi NE 21.9 mph 34.5 mph N/A   Clear
12:53 PM 43.0 °F 34.8 °F 26.1 °F 51% 29.99 in 10.0 mi NE 18.4 mph 34.5 mph N/A   Overcast
1:53 PM 43.0 °F 34.8 °F 26.1 °F 51% 29.96 in 10.0 mi NE 18.4 mph 28.8 mph N/A   Overcast
2:53 PM 42.1 °F 33.9 °F 26.1 °F 53% 29.95 in 10.0 mi NE 17.3 mph 28.8 mph N/A   Overcast
3:53 PM 42.1 °F 32.6 °F 27.0 °F 55% 29.94 in 10.0 mi NE 23.0 mph 29.9 mph N/A   Overcast
4:53 PM 39.9 °F 31.8 °F 30.9 °F 70% 29.95 in 10.0 mi NE 15.0 mph 23.0 mph 0.00 in Rain Light Rain
5:53 PM 39.0 °F - 30.9 °F 73% 29.94 in 10.0 mi Calm Calm - 0.02 in Rain Light Rain
6:53 PM 37.9 °F - 32.0 °F 79% 29.92 in 10.0 mi Calm Calm - 0.01 in Rain Light Rain
7:53 PM 37.9 °F - 33.1 °F 83% 29.91 in 10.0 mi Calm Calm - 0.00 in   Overcast
8:53 PM 37.0 °F - 33.1 °F 86% 29.91 in 10.0 mi Calm Calm - 0.01 in Rain Light Rain
9:27 PM 36.0 °F - 33.1 °F 89% 29.89 in 7.0 mi Calm Calm - 0.02 in Rain Light Rain
9:53 PM 36.0 °F 33.3 °F 33.1 °F 89% 29.90 in 5.0 mi NNE 3.5 mph - 0.03 in Rain Light Rain
10:53 PM 36.0 °F - 33.1 °F 89% 29.89 in 5.0 mi Calm Calm - 0.03 in Rain Light Rain
11:08 PM 35.1 °F 32.2 °F 33.1 °F 92% 29.87 in 4.0 mi NNE 3.5 mph - 0.01 in Rain Light Rain
11:53 PM 35.1 °F - 34.0 °F 96% 29.88 in 6.0 mi Calm Calm - 0.03 in Rain Light Rain